STARLINK-32279, 61003

Orbit data source: Space-Track

STARLINK-32279, 61003 is a payload satellite owned by SpaceX/Seattle (US) in LEO that was launched on Thu, 05 Sep 2024 UTC via an FALCON 9 launch vehicle from the Air Force Eastern Test Range (AFETR). Payload-class satellites include a variety of spacecraft equipped with specific instruments for various scientific and technological missions. These include communications satellites like Starlink; space stations such as the ISS; scientific satellites like the Hubble; Earth observation satellites from companies like Planet Labs, Umbra, and HawkEye 360; GPS; miniature CubeSats for education and research; and military/defense satellites.

Loading next visibility...
Identifier
61003, 2024-158P
Orbit
LEO
Last TLE update
9 hours ago
Origin
Manufacturer
SpaceX/Seattle
Mission
Operational Commercial Communications
Bus & Motor
STARLINK V2M, Unknown motor
Mass
730 kg wet, ~700 kg dry
Launch date (UTC)
2024-09-05 (9 months ago)
Launch vehicle
FALCON 9
Launch site
Air Force Eastern Test Range (AFETR)
Object type
Payload
Rocket body
Debris
Shape & HBR
Box + 2 Pan, 29 m
Radar Cross Section
33.884 m², Large (>1 m²)

Expand to show TLE details & history

TLE from 9 hours ago
0 STARLINK-32279
1 61003U 24158P   25167.42140836  .00001833  00000-0  74015-4 0  9995
2 61003  53.1596 222.3722 0001352  78.6556 281.4597 15.30187725 44888
Epoch: 2025-06-16T10:06Z
TLE epoch observation values (Epoch: 2025-06-16T10:06:49.682Z)
Latitude
0.00002°
Longitude
165.73282°
Altitude
475.967 km
Speed
7.629 km/s
True Right ascension
14h 49m 29s
True Declination
0° 00' 00"
Sunlit
Object was in full shadow at epoch
Visualization orbit readout
Latitude
9.18428°
Longitude
170.82114°
Altitude
475.078 km
Speed
7.63 km/s
Apparent Right ascension
16h 26m 44s
Apparent Declination
-15° 30' 38"
Sunlit
Object is in full shadow
Visualization observer readout
Local Sidereal Time
06:14:56
Azimuth
51.743° ENE
Elevation
-56.077°
Doppler factor
1
Orbital elements
Apogee altitude
476.435 km
Perigee altitude
474.582 km
Semi-major axis
6,853.645 km
Eccentricity
0.00014
Inclination
53.1596°
RAAN
222.3722°
Arg. of periapsis
78.6556°
True anomaly
Unknown
Mean anomaly
281.4597°
Eccentric anomaly
Unknown
Mean motion
3.82526 °/min
Orbital period
94.11 mins
BSTAR
0.000074015
Loading maneuver chart data...
Loading SW <> Apogee altitude chart data...
Loading historical data...
Loading historical data...
Loading historical data...
Loading historical data...
Loading historical data...
Loading historical data...
Loading historical data...

STARLINK-32279 Visibility forecast

Observer location: undefined°, undefined°

Span
Click to sort rows by Start time (UTC) header in descending order
Start Az.
Max El. time (UTC)
Max El. Az.
Max El.
End time (UTC)
End Az.
5 mins2025-06-17 06:42:08.112Z248.51° W2025-06-17 06:44:08.112Z324.079° NNW41.284°2025-06-17 06:47:08.112Z42.348° NE
4 mins2025-06-17 11:39:08.112Z347.255° N2025-06-17 11:41:08.112Z29.082° NE19.004°2025-06-17 11:43:08.112Z66.979° ENE
5 mins2025-06-17 13:17:08.112Z303.199° NW2025-06-17 13:19:08.112Z228.484° WSW43.859°2025-06-17 13:22:08.112Z138.353° SSE
|